Location: Unspecified
(43.4680°N, 87.1740°E)
Time: 05:38:12
(UTC+00:00)

COSMOS 2406 - Pass Details

Date: 17 April 2021
Orbit: 845 x 862 km, 71.0° (Epoch: 16 May)

Event Time Altitude Azimuth Distance (km) Brightness Sun altitude
Rises 21:12:47 0° 327° (NNW) 3,416 6.5 -21.8°
Reaches altitude 10° 21:15:25 10° 319° (NW) 2,475 5.6 -21.4°
Enters shadow 21:20:05 35° 265° (W) 1,334 3.8 -20.8°
